Terminal Aerodrome Forecast
Issued by NWS

Home | Current Version | Previous Version | Text Only | Print | Product List | Glossary On
Versions: 1 2 3 4 5 6 7 8 9 10 11 12 13 14 15 16 17 18 19 20 21 22 23 24 25 26
000
FTUS41 KBGM 201739
TAFRME
TAF
KRME 201739Z 2018/2118 29012KT P6SM BKN035
     FM202200 29008KT P6SM BKN040
     FM210600 29003KT P6SM SCT040
     FM211500 29010KT P6SM SKC=

USA.gov is the U.S. government's official web portal to all federal, state and local government web resources and services.